Regional Weather Roundup
Issued by NWS Albany, NY

Home | Current Version | Previous Version | Text Only | Print | Product List | Glossary On
Versions: 1 2 3 4 5 6 7 8 9 10 11 12 13 14 15 16 17 18 19 20 21 22 23 24 25 26 27 28 29 30 31 32 33 34 35 36 37 38 39 40 41 42 43 44 45 46 47
000
ASUS41 KALY 011110
RWRALY

NEW YORK STATE HOURLY WEATHER ROUNDUP
NATIONAL WEATHER SERVICE ALBANY NY
700 AM EDT SAT AUG 01 2015

NOTE: "FAIR" INDICATES FEW OR NO CLOUDS BELOW 12,000 FEET WITH NO
SIGNIFICANT WEATHER AND/OR NO OBSTRUCTIONS TO VISIBILITY.

NYZ032-033-038>043-046>054-057>066-NYZ062>081-011200-
EAST


CITY           SKY/WX    TMP DP  RH WIND       PRES   REMARKS
ALBANY         CLOUDY    68  61  78 CALM      29.79R
GLENS FALLS    PTSUNNY   64  60  87 S3        29.75S
POUGHKEEPSIE   MOSUNNY   68  62  81 CALM      29.78R
NEWBURGH       MOSUNNY   68  63  83 W8        29.81R
MONTGOMERY     MOSUNNY   67  62  84 S6        29.79S
WHITE PLAINS   MOSUNNY   72  60  66 W5        29.80R
ISLIP          MOSUNNY   73  64  73 SW7       29.78R
NEW YORK CITY  MOSUNNY   78  60  53 SW6       29.79R
CENTRAL PARK   SUNNY     76  60  57 VRB3      29.83R
$$

NYZ005>009-017-018-044>046-055-056-011200-
CENTRAL


CITY           SKY/WX    TMP DP  RH WIND       PRES   REMARKS
FULTON         SUNNY     64  61  90 VRB6      29.79S
SYRACUSE       MOSUNNY   67  62  84 W9        29.79R
ROME           MOSUNNY   61  61 100 CALM      29.80S
ELMIRA         CLEAR     63  62  97 S5        29.83R
BINGHAMTON     PTSUNNY   63  60  90 W5        29.84R
MONTICELLO     CLOUDY    61  57  88 CALM      29.85S
$$

NYZ026>034-041>043-011200-
NORTH


CITY           SKY/WX    TMP DP  RH WIND       PRES   REMARKS
WATERTOWN      PTSUNNY   64  63  96 SW7       29.77R
FORT DRUM      NOT AVBL
MASSENA        SUNNY     65  61  87 SW7       29.73R
SARANAC LAKE   PTSUNNY   60  59  96 W3        29.76R
PLATTSBURGH    CLOUDY    68  59  73 VRB5      29.71R
$$

NYZ001>004-010>016-019>021-011200-
WEST


CITY           SKY/WX    TMP DP  RH WIND       PRES   REMARKS
NIAGARA FALLS  PTCLDY    62  60  93 W5        29.84R
BUFFALO        PTCLDY    66  59  78 W6        29.85R
DUNKIRK        PTCLDY    64  61  90 SW5       29.87R
JAMESTOWN      CLEAR     63  55  77 NW6       29.91R
WELLSVILLE     CLEAR     62  59  90 NW6       29.90R
ROCHESTER      CLOUDY    64  59  83 W7        29.83R
PENN YAN       CLEAR     65  61  87 S3        29.83R
$$

             KEY
       WCI = WIND CHILL INDEX
       VSB = VISIBILITY
       HX  = HEAT INDEX
$$



USA.gov is the U.S. government's official web portal to all federal, state and local government web resources and services.